This demonstration page uses our WeatherBlox Daily Observations layout. Learn more.

Left ArrowRight Arrow

36.17497, -115.13722

Hourly Observations for December 2, 2020

Temp ( °F °C ) Dew Point ( °F °C ) Humidity (%) Winds ( mph kmh ) Pressure ( in mb ) Visibility ( mi km ) Precip ( " mm )
12:53 am 00:53 Clear 46 7.8 18 -7.8 32 32 W 5 7 30.24 1024 10 16.0934 0 0
1:53 am 01:53 Clear 43 6.1 17 -8.3 35 35 WSW 6 9 30.25 1024 10 16.0934 0 0
2:53 am 02:53 Clear 43 6.1 17 -8.3 35 35 W 5 7 30.25 1024 10 16.0934 0 0
3:53 am 03:53 Clear 42 5.6 17 -8.3 36 36 WSW 3 6 30.26 1025 10 16.0934 0 0
4:53 am 04:53 Clear 40 4.4 17 -8.3 40 40 W 5 7 30.28 1025 10 16.0934 0 0
5:53 am 05:53 Clear 38 3.3 17 -8.3 43 43 Calm 30.29 1026 10 16.0934 0 0
6:53 am 06:53 Sunny 40 4.4 18 -7.8 41 41 W 9 15 30.31 1027 10 16.0934 0 0
7:53 am 07:53 Sunny 46 7.8 17 -8.3 31 31 WSW 5 7 30.34 1028 10 16.0934 0 0
8:53 am 08:53 Sunny 51 10.6 15 -9.4 24 24 Calm 30.35 1028 10 16.0934 0 0
9:53 am 09:53 Sunny 54 12.2 15 -9.4 21 21 Calm 30.35 1028 10 16.0934 0 0
10:53 am 10:53 Sunny 57 13.9 13 -10.6 17 17 ENE 7 11 30.34 1027 10 16.0934 0 0
11:53 am 11:53 Sunny 58 14.4 11 -11.7 15 15 E 20 31 30.32 1027 10 16.0934 0 0
12:53 pm 12:53 Sunny 59 15 9 -12.8 13 13 NE 20 31 30.29 1026 10 16.0934 0 0
1:53 pm 13:53 Sunny with Light Rain 59 15 9 -12.8 13 13 ENE 23 37 30.29 1026 10 16.0934 0.001 0.001
2:53 pm 14:53 Sunny 59 15 9 -12.8 13 13 NE 21 33 30.29 1026 10 16.0934 0.001 0.001
3:53 pm 15:53 Sunny 57 13.9 12 -11.1 17 17 ENE 13 20 30.31 1027 10 16.0934 0 0
4:53 pm 16:53 Clear 55 12.8 11 -11.7 17 17 ENE 14 22 30.34 1028 10 16.0934 0 0
5:53 pm 17:53 Clear 53 11.7 11 -11.7 18 18 ENE 16 26 30.37 1028 10 16.0934 0 0
6:53 pm 18:53 Clear 51 10.6 10 -12.2 19 19 NNE 7 11 30.41 1030 10 16.0934 0 0
7:53 pm 19:53 Clear 50 10 9 -12.8 19 19 NE 6 9 30.43 1030 10 16.0934 0 0
8:53 pm 20:53 Clear 50 10 11 -11.7 21 21 N 6 9 30.43 1030 10 16.0934 0 0
9:53 pm 21:53 Clear 47 8.3 11 -11.7 23 23 W 5 7 30.44 1031 10 16.0934 0 0
10:53 pm 22:53 Clear 49 9.4 11 -11.7 21 21 ENE 5 7 30.44 1031 10 16.0934 0 0
11:53 pm 23:53 Clear 45 7.2 11 -11.7 25 25 NNW 5 7 30.44 1031 10 16.0934 0 0

Powered by AerisWeather